When you browse on this site, cookies collect data to enhance your experience and personalize the content and advertising you see.
Visit our Privacy Policy to learn more. By continuing to use the site, you agree to this use of cookies and data.
  • In Hungary
  • List of Countries
  • For 7 days
  • Water Temperature
  • Weather Map
  • News
  • Weather Widgets
  • user-avatar
    Login

    Hourly Weather Pognoyki

    Today, 13 December, Friday

    Time Temperature Precipitation Wind Pressure Humidity
    00:00 -1°C° 0 mm 6 mps 743 mmHg 86%
    01:00 -1°C° 0 mm 6 mps 743 mmHg 86%
    02:00 0°C° 0 mm 5 mps 743 mmHg 86%
    03:00 0°C° 0 mm 5 mps 743 mmHg 88%
    04:00 -1°C° 0 mm 5 mps 742 mmHg 89%
    05:00 -1°C° 0 mm 5 mps 742 mmHg 91%
    06:00 -1°C° 0 mm 4 mps 742 mmHg 90%
    07:00 -1°C° 0 mm 4 mps 742 mmHg 90%
    08:00 -1°C° 0 mm 4 mps 742 mmHg 89%
    09:00 -1°C° 0 mm 5 mps 741 mmHg 88%
    10:00 -1°C° 0 mm 5 mps 741 mmHg 86%
    11:00 -2°C° 0 mm 6 mps 741 mmHg 85%
    12:00 -1°C° 0 mm 5 mps 740 mmHg 85%
    13:00 -1°C° 0 mm 5 mps 740 mmHg 85%
    14:00 -1°C° 0 mm 5 mps 740 mmHg 84%
    15:00 -1°C° 0 mm 5 mps 740 mmHg 87%
    16:00 -2°C° 0 mm 6 mps 739 mmHg 90%
    17:00 -2°C° 0 mm 6 mps 739 mmHg 94%
    18:00 -2°C° 0 mm 6 mps 739 mmHg 93%
    19:00 -2°C° 0 mm 6 mps 739 mmHg 92%
    20:00 -2°C° 0 mm 6 mps 739 mmHg 91%
    21:00 -2°C° 0 mm 6 mps 739 mmHg 91%
    22:00 -2°C° 0 mm 6 mps 739 mmHg 91%
    23:00 -2°C° 0 mm 6 mps 739 mmHg 90%

    Tomorrow, 14 December, Saturday

    Time Temperature Precipitation Wind Pressure Humidity
    00:00 -2°C° 0 mm 6 mps 739 mmHg 88%
    01:00 -2°C° 0 mm 6 mps 739 mmHg 85%
    02:00 -2°C° 0 mm 6 mps 739 mmHg 82%
    03:00 -2°C° 0 mm 7 mps 739 mmHg 82%
    04:00 -2°C° 0 mm 7 mps 739 mmHg 83%
    05:00 -2°C° 0 mm 7 mps 738 mmHg 83%
    06:00 -2°C° 0 mm 6 mps 739 mmHg 84%
    07:00 -2°C° 0 mm 6 mps 739 mmHg 85%
    08:00 -2°C° 0 mm 6 mps 739 mmHg 86%
    09:00 -2°C° 0 mm 6 mps 739 mmHg 85%
    10:00 -1°C° 0 mm 6 mps 739 mmHg 85%
    11:00 -1°C° 0 mm 6 mps 739 mmHg 84%
    12:00 -1°C° 0 mm 6 mps 739 mmHg 85%
    13:00 -1°C° 0 mm 6 mps 739 mmHg 85%
    14:00 -1°C° 0 mm 6 mps 738 mmHg 85%
    15:00 -1°C° 0 mm 6 mps 738 mmHg 87%
    16:00 -1°C° 0 mm 6 mps 738 mmHg 89%
    17:00 -1°C° 0 mm 7 mps 738 mmHg 92%
    18:00 -1°C° 0 mm 7 mps 738 mmHg 92%
    19:00 +1°C° 0 mm 6 mps 738 mmHg 93%
    20:00 +1°C° 0 mm 6 mps 738 mmHg 94%
    21:00 +1°C° 0.1 mm 6 mps 737 mmHg 93%
    22:00 +1°C° 0.1 mm 6 mps 737 mmHg 92%
    23:00 +2°C° 0.1 mm 6 mps 737 mmHg 91%

    Day after tomorrow, 15 December, Sunday

    Time Temperature Precipitation Wind Pressure Humidity
    00:00 +2°C° 0.4 mm 6 mps 736 mmHg 91%
    01:00 +2°C° 0.4 mm 6 mps 736 mmHg 91%
    02:00 +2°C° 0.4 mm 6 mps 736 mmHg 91%
    03:00 +2°C° 0.1 mm 6 mps 736 mmHg 90%
    04:00 +2°C° 0.1 mm 6 mps 735 mmHg 90%
    05:00 +2°C° 0.1 mm 6 mps 735 mmHg 89%
    06:00 +2°C° 0.3 mm 6 mps 735 mmHg 88%
    07:00 +2°C° 0.3 mm 7 mps 736 mmHg 87%
    08:00 +2°C° 0.3 mm 7 mps 736 mmHg 85%
    09:00 0°C° 0.1 mm 7 mps 737 mmHg 82%
    10:00 0°C° 0.1 mm 7 mps 737 mmHg 78%
    11:00 0°C° 0.1 mm 7 mps 738 mmHg 74%
    12:00 +1°C° 0 mm 6 mps 738 mmHg 75%
    13:00 +1°C° 0 mm 6 mps 739 mmHg 76%
    14:00 +1°C° 0 mm 6 mps 740 mmHg 78%
    15:00 +1°C° 0 mm 5 mps 740 mmHg 78%
    16:00 0°C° 0 mm 5 mps 740 mmHg 78%
    17:00 0°C° 0 mm 4 mps 740 mmHg 79%
    18:00 0°C° 0 mm 5 mps 739 mmHg 81%
    19:00 +1°C° 0 mm 6 mps 739 mmHg 83%
    20:00 0°C° 0 mm 7 mps 739 mmHg 86%
    21:00 +2°C° 0.6 mm 7 mps 739 mmHg 85%
    22:00 +2°C° 0.6 mm 8 mps 739 mmHg 84%
    23:00 +4°C° 0.6 mm 8 mps 739 mmHg 83%

    16 December, Monday

    Time Temperature Precipitation Wind Pressure Humidity
    00:00 +3°C° 0 mm 7 mps 739 mmHg 82%
    01:00 +2°C° 0 mm 7 mps 740 mmHg 82%
    02:00 +1°C° 0 mm 6 mps 741 mmHg 81%
    03:00 +1°C° 0 mm 6 mps 741 mmHg 81%
    04:00 -1°C° 0 mm 6 mps 742 mmHg 81%
    05:00 -1°C° 0 mm 6 mps 742 mmHg 80%
    06:00 -1°C° 0 mm 6 mps 743 mmHg 81%
    07:00 -1°C° 0 mm 6 mps 743 mmHg 81%
    08:00 -2°C° 0 mm 6 mps 743 mmHg 82%
    09:00 -1°C° 0 mm 6 mps 744 mmHg 80%
    10:00 -1°C° 0 mm 6 mps 744 mmHg 79%
    11:00 -1°C° 0 mm 6 mps 745 mmHg 78%
    12:00 -1°C° 0 mm 6 mps 745 mmHg 77%
    13:00 0°C° 0 mm 5 mps 746 mmHg 77%
    14:00 +1°C° 0 mm 5 mps 746 mmHg 77%
    15:00 0°C° 0 mm 4 mps 746 mmHg 79%
    16:00 -1°C° 0 mm 4 mps 747 mmHg 82%
    17:00 -1°C° 0 mm 4 mps 747 mmHg 85%
    18:00 -1°C° 0 mm 4 mps 747 mmHg 84%
    19:00 -2°C° 0 mm 4 mps 747 mmHg 84%
    20:00 -2°C° 0 mm 4 mps 747 mmHg 83%
    21:00 -1°C° 0 mm 4 mps 747 mmHg 84%
    22:00 -1°C° 0 mm 4 mps 747 mmHg 84%
    23:00 -1°C° 0 mm 4 mps 747 mmHg 85%

    17 December, Tuesday

    Time Temperature Precipitation Wind Pressure Humidity
    00:00 0°C° 0 mm 4 mps 747 mmHg 88%
    01:00 0°C° 0 mm 4 mps 747 mmHg 90%
    02:00 +1°C° 0 mm 4 mps 746 mmHg 93%
    03:00 +1°C° 0.3 mm 4 mps 746 mmHg 94%
    04:00 +2°C° 0.3 mm 3 mps 746 mmHg 95%
    05:00 +2°C° 0.3 mm 3 mps 746 mmHg 96%
    06:00 +2°C° 0.1 mm 3 mps 746 mmHg 96%
    07:00 +2°C° 0.1 mm 3 mps 746 mmHg 96%
    08:00 +2°C° 0.1 mm 3 mps 746 mmHg 96%
    09:00 +2°C° 0.2 mm 3 mps 746 mmHg 96%
    10:00 +3°C° 0.2 mm 2 mps 746 mmHg 96%
    11:00 +3°C° 0.2 mm 2 mps 746 mmHg 95%
    12:00 +3°C° 0.2 mm 2 mps 746 mmHg 95%
    13:00 +3°C° 0.2 mm 3 mps 746 mmHg 94%
    14:00 +3°C° 0.2 mm 3 mps 745 mmHg 93%
    15:00 +3°C° 0 mm 3 mps 745 mmHg 93%
    16:00 +2°C° 0 mm 3 mps 745 mmHg 94%
    17:00 +2°C° 0 mm 3 mps 745 mmHg 94%
    18:00 +2°C° 0 mm 3 mps 745 mmHg 94%
    19:00 +2°C° 0 mm 3 mps 745 mmHg 94%
    20:00 +2°C° 0 mm 3 mps 745 mmHg 95%
    21:00 +2°C° 0 mm 3 mps 745 mmHg 95%
    22:00 +2°C° 0 mm 2 mps 746 mmHg 95%
    23:00 +2°C° 0 mm 2 mps 746 mmHg 95%

    18 December, Wednesday

    Time Temperature Precipitation Wind Pressure Humidity
    00:00 +2°C° 0 mm 2 mps 745 mmHg 95%
    01:00 +2°C° 0 mm 2 mps 745 mmHg 95%
    02:00 +1°C° 0 mm 3 mps 745 mmHg 95%
    03:00 +2°C° 0 mm 2 mps 745 mmHg 94%
    04:00 +2°C° 0 mm 2 mps 744 mmHg 94%
    05:00 +2°C° 0 mm 2 mps 744 mmHg 94%
    06:00 +2°C° 0 mm 2 mps 744 mmHg 94%
    07:00 +2°C° 0 mm 2 mps 744 mmHg 94%
    08:00 +2°C° 0 mm 2 mps 744 mmHg 94%
    09:00 +1°C° 0 mm 3 mps 744 mmHg 93%
    10:00 +2°C° 0 mm 3 mps 744 mmHg 92%
    11:00 +2°C° 0 mm 3 mps 745 mmHg 92%
    12:00 +3°C° 0 mm 3 mps 744 mmHg 91%
    13:00 +3°C° 0 mm 3 mps 744 mmHg 91%
    14:00 +3°C° 0 mm 3 mps 744 mmHg 90%
    15:00 +3°C° 0 mm 3 mps 744 mmHg 91%
    16:00 +3°C° 0 mm 3 mps 744 mmHg 92%
    17:00 +2°C° 0 mm 3 mps 744 mmHg 93%
    18:00 +2°C° 0 mm 3 mps 744 mmHg 93%
    19:00 +1°C° 0 mm 4 mps 743 mmHg 93%
    20:00 +1°C° 0 mm 4 mps 743 mmHg 93%
    21:00 +3°C° 0 mm 4 mps 743 mmHg 92%
    22:00 +2°C° 0 mm 5 mps 742 mmHg 92%
    23:00 +2°C° 0 mm 5 mps 742 mmHg 91%
    Show more